Wind_Speed
23 23 23 20 18 14 13 9 13 10 10 10 9 9 9 10 11 12 13 15 15 15 15 16 16 17 18 18 16 13 11 8 6 5 7 10 13 15 15 14 14 15 17 19 20 21 23 25 27
24 24 22 20 18 15 16 17 13 13 10 9 8 10 11 11 13 15 17 18 17 18 18 18 19 19 18 16 15 11 8 8 7 7 10 13 12 11 14 15 17 18 19 22 23 24 26 27 28
25 26 24 22 18 17 20 17 16 14 14 15 13 14 13 16 17 17 20 20 20 20 21 20 20 20 18 15 11 10 10 8 7 10 12 10 12 12 13 16 18 20 21 22 24 25 27 28 30
26 27 26 23 21 20 21 19 18 19 19 18 16 16 17 20 20 21 23 23 23 22 22 21 21 20 16 13 12 12 11 9 8 12 10 11 10 12 15 17 17 18 19 21 24 24 25 26 29
29 29 28 24 22 24 23 23 20 20 21 22 21 18 20 21 22 25 25 25 25 23 23 22 22 18 16 14 14 12 11 9 11 11 11 12 13 16 15 14 15 19 21 23 24 21 23 25 27
34 33 31 26 25 27 23 26 22 21 22 25 23 23 24 23 24 28 27 25 25 24 24 23 20 19 18 17 15 12 11 12 13 11 13 14 16 15 14 15 18 22 24 25 27 26 26 27 29
37 37 32 29 27 28 28 30 25 26 25 25 27 26 27 27 28 28 27 25 25 25 25 23 21 21 20 18 16 13 13 15 11 13 15 16 16 14 16 18 21 23 24 26 28 28 31 31 33
39 43 34 30 29 28 33 35 30 29 29 29 31 29 31 31 30 28 26 28 26 25 25 23 22 23 21 19 17 15 16 14 13 15 17 18 16 15 17 20 24 24 26 28 28 30 32 35 37
43 45 34 30 33 32 37 38 35 34 33 31 31 33 33 34 30 29 26 29 28 26 25 24 24 24 22 21 18 18 18 16 17 17 18 18 18 18 18 22 24 26 28 29 32 33 34 37 39
46 43 36 35 37 39 40 40 38 35 35 33 31 34 35 36 30 31 28 30 30 27 26 25 25 26 25 23 21 21 20 20 20 20 21 20 20 20 20 23 24 26 28 30 33 35 36 38 40
51 48 43 42 41 42 42 41 41 38 35 31 34 37 35 34 30 29 29 31 31 29 26 27 28 28 27 25 24 23 23 23 24 23 24 23 22 23 23 25 25 26 30 31 34 35 36 36 41
53 49 48 46 46 46 45 45 43 41 34 36 37 37 35 33 33 32 31 32 32 31 30 29 31 30 30 28 27 26 25 26 27 26 26 25 24 25 25 27 27 27 30 33 35 37 35 38 41
51 50 50 49 51 50 48 46 46 40 36 39 40 39 36 36 35 35 33 32 33 31 31 33 34 34 33 31 30 28 27 28 30 29 28 29 27 27 28 29 30 28 31 33 37 38 36 40 42
46 52 52 50 52 53 52 50 52 34 40 45 46 42 39 36 35 37 32 34 32 34 33 37 37 35 34 33 32 29 29 29 31 32 32 32 32 30 31 31 31 32 33 35 37 35 39 42 43
43 47 51 49 59 56 57 55 51 42 47 50 45 44 41 37 40 33 34 34 35 35 37 38 40 38 36 35 33 31 31 31 32 33 34 35 35 33 33 34 33 33 35 37 39 39 41 43 45
39 41 40 40 50 55 63 55 50 51 51 49 50 47 46 42 40 38 35 34 36 37 36 40 43 39 39 38 36 34 34 34 35 36 36 36 36 35 35 33 34 36 35 39 39 41 44 45 47
36 36 38 36 39 45 54 55 51 52 51 50 49 48 45 40 38 37 36 36 37 38 39 41 43 42 41 41 39 36 36 36 37 37 37 37 36 36 36 33 33 35 36 39 39 41 44 48 49
33 37 38 35 33 36 36 46 54 56 57 50 47 43 40 40 38 40 40 39 40 40 41 42 43 45 44 42 40 39 38 38 38 39 39 38 37 37 37 36 35 38 38 38 40 41 45 47 48
41 40 36 31 30 32 32 30 38 51 62 51 50 45 42 37 37 41 38 43 43 41 41 42 43 44 44 42 42 42 40 40 40 41 40 40 39 41 41 40 40 41 40 41 41 44 48 49 49
43 41 38 32 33 36 32 33 23 37 53 56 49 47 39 40 38 40 41 42 41 40 39 42 41 44 44 44 45 44 43 41 43 43 42 42 41 42 43 42 42 43 42 42 43 45 49 50 51
43 43 41 39 39 40 39 38 25 25 35 39 37 33 44 37 40 40 40 39 39 39 38 39 43 44 45 45 47 46 44 45 45 46 43 43 43 43 44 42 42 44 42 43 45 48 52 52 53
43 43 43 41 42 43 41 45 32 26 31 34 31 33 39 37 38 39 38 36 35 36 38 41 43 44 45 48 47 46 47 47 46 45 43 43 44 44 44 42 43 42 42 46 48 50 54 53 53
42 43 45 44 44 45 43 48 36 28 27 34 36 38 35 35 36 36 39 40 40 41 40 41 43 45 47 47 46 46 46 47 47 44 44 43 44 44 44 42 43 41 44 47 49 52 55 53 55
44 43 44 45 46 45 42 44 32 34 27 30 37 37 37 34 31 32 34 35 36 37 40 44 45 44 45 43 43 45 47 47 45 44 44 44 44 44 43 43 43 43 46 48 50 53 53 53 55
48 46 46 46 47 43 42 42 28 38 30 30 32 37 37 38 39 38 38 37 37 37 40 41 43 43 43 43 44 46 46 45 44 43 44 43 43 43 43 44 44 44 47 49 51 53 52 54 56
47 50 51 52 50 45 45 42 32 36 37 33 34 34 37 40 40 38 38 39 39 40 41 43 42 43 42 42 44 45 44 44 43 44 43 43 43 43 44 45 45 46 48 50 51 52 52 54 56
47 49 47 49 50 51 51 47 40 38 37 34 31 34 36 38 39 38 37 36 35 37 39 41 43 43 43 44 45 44 42 42 43 43 43 43 43 43 44 45 45 47 49 50 50 51 51 53 55
53 49 46 47 50 52 53 50 47 41 40 38 34 33 34 36 37 37 36 35 36 37 39 41 42 42 44 45 44 42 42 42 42 43 41 41 42 43 44 44 45 47 48 48 49 50 51 53 56
50 52 49 48 50 53 53 50 44 44 42 40 40 36 32 34 36 38 39 40 39 38 39 40 42 43 43 44 43 42 42 42 42 40 40 41 41 42 42 44 46 46 46 48 49 49 52 53 56
60 58 58 57 54 51 49 49 46 43 43 41 35 32 30 27 27 30 34 36 38 40 41 41 41 40 40 39 38 39 41 41 40 38 39 40 41 42 44 45 44 44 46 47 48 51 51 52 56
Wind_Direction
213 210 210 211 211 210 217 206 224 225 214 210 223 225 225 230 245 251 251 252 253 254 258 264 268 269 272 273 276 277 274 265 262 276 297 311 321 319 321 319 319 316 317 314 311 309 304 300 298
214 216 214 210 207 209 220 221 227 236 237 233 231 236 239 240 240 247 256 258 257 259 260 263 267 267 267 270 269 259 245 245 260 283 308 321 321 323 322 321 322 322 320 320 318 315 311 307 303
220 219 215 212 208 211 226 229 229 238 235 245 245 248 251 255 255 250 255 256 259 262 263 262 262 263 266 262 243 232 235 248 279 303 313 316 317 317 321 320 320 318 320 319 317 316 314 314 310
224 222 216 212 211 220 231 234 238 236 241 247 245 252 264 266 268 263 261 262 262 262 260 258 259 264 259 236 226 232 241 263 291 304 304 303 298 307 313 319 323 327 324 323 322 321 318 312 309
232 230 225 215 216 228 233 241 238 239 246 256 259 266 265 267 273 272 269 266 264 262 259 260 263 255 237 226 227 239 250 277 288 290 290 293 299 310 314 321 325 325 325 327 325 322 327 320 313
238 235 234 225 223 232 238 245 246 242 247 255 266 264 267 275 276 276 276 272 267 265 262 262 258 245 228 223 231 242 259 276 282 267 278 288 299 306 313 317 328 325 331 336 339 339 338 333 325
243 242 237 233 232 237 245 247 245 247 246 253 262 266 271 272 271 276 279 272 263 261 262 261 247 234 226 229 239 246 261 274 259 266 274 284 290 299 310 319 319 323 333 338 341 341 339 337 333
247 245 239 236 238 239 247 248 252 253 251 250 257 263 265 267 269 273 272 266 267 263 258 252 242 232 226 235 243 253 264 260 256 264 275 282 288 294 309 313 316 327 333 336 338 340 339 335 332
246 249 245 243 243 244 247 252 253 255 256 255 257 258 263 268 266 266 264 267 265 261 256 246 239 233 231 240 246 255 265 250 256 268 277 280 287 293 305 311 320 327 331 333 335 335 335 333 332
243 251 249 247 243 245 247 253 253 254 255 256 254 260 259 263 264 266 264 264 264 261 253 247 242 234 234 242 248 256 265 250 259 270 276 275 284 291 299 308 318 323 326 329 330 331 331 329 328
243 245 248 246 246 246 246 250 254 254 255 254 251 251 255 260 261 263 262 261 259 258 252 247 240 235 238 242 250 258 266 254 260 269 276 275 281 289 296 304 311 320 323 325 327 326 326 327 325
247 249 250 249 245 245 246 247 250 254 257 253 254 254 252 254 257 254 256 258 256 248 243 242 237 238 239 243 251 259 268 261 260 267 274 277 279 284 290 299 305 312 318 321 321 320 321 325 322
248 249 250 250 248 246 245 248 248 249 253 256 255 253 252 253 253 255 255 256 252 245 244 240 235 236 240 245 251 259 268 269 262 267 274 279 278 282 286 293 302 304 313 315 315 316 319 319 318
246 251 251 249 247 248 248 247 251 250 250 249 250 254 255 256 256 257 256 250 245 242 241 238 235 236 240 245 251 259 267 276 270 272 274 277 279 281 282 289 299 303 308 310 312 312 315 314 316
256 254 255 254 248 248 248 248 250 246 248 253 252 254 255 254 255 256 250 244 240 241 242 239 235 236 241 246 251 257 265 272 281 285 284 278 279 279 281 286 294 301 302 307 308 311 313 313 316
256 257 260 262 259 259 251 249 247 246 249 249 251 250 252 254 254 254 249 243 242 243 246 242 238 237 241 247 253 257 264 271 277 284 290 286 281 277 279 287 294 296 297 304 308 309 308 311 317
262 268 267 265 268 263 256 252 245 245 245 247 250 252 251 252 252 255 249 247 245 246 247 243 238 237 241 247 252 257 262 269 276 282 287 290 284 275 278 286 295 294 293 302 308 310 309 309 314
259 252 255 263 267 269 266 261 247 244 243 243 247 248 247 243 247 249 250 245 244 244 246 244 240 238 242 247 254 258 262 268 276 281 285 290 288 278 278 282 288 293 293 300 309 310 311 311 313
252 256 260 263 264 264 268 268 252 242 249 244 246 245 246 239 242 244 247 250 247 246 248 243 241 241 243 249 253 257 263 269 275 280 285 287 290 281 278 281 287 291 295 298 305 310 312 313 311
256 256 257 254 255 264 264 265 272 254 251 249 238 239 240 240 244 250 250 248 249 247 247 246 244 245 245 250 255 260 264 269 273 279 284 285 288 285 279 281 287 291 293 297 303 309 310 311 310
255 257 256 252 249 253 260 264 259 243 243 243 252 244 246 251 244 249 249 249 247 248 247 245 245 244 247 251 256 261 266 269 274 279 281 283 285 286 280 282 285 290 292 297 303 308 310 310 310
253 256 257 255 254 254 257 267 253 249 241 243 245 246 244 244 249 250 256 255 256 250 246 242 243 244 248 252 256 262 266 270 274 277 279 281 284 284 279 281 284 289 292 298 304 307 310 310 310
251 248 251 253 254 256 256 260 263 250 248 239 243 244 244 245 249 249 249 250 250 250 248 243 244 247 250 254 258 263 267 268 271 274 277 280 282 280 278 280 285 291 295 299 303 308 309 311 311
251 251 251 252 254 256 259 257 257 260 249 241 243 248 247 250 252 255 258 259 259 258 257 255 252 252 253 257 259 260 262 266 270 272 275 278 280 277 277 279 284 291 296 300 304 307 310 312 311
251 252 252 252 252 258 260 259 268 267 258 253 242 246 249 251 249 250 252 254 256 255 254 254 253 254 253 254 257 258 261 265 268 271 274 277 277 275 277 279 285 291 296 301 304 307 309 312 314
249 250 251 253 254 255 256 259 258 267 265 258 255 251 247 249 251 252 252 253 253 254 254 255 255 253 253 255 255 256 259 264 267 270 274 275 275 276 276 281 286 292 296 301 303 306 309 313 316
249 250 252 254 255 255 255 256 256 260 265 264 254 252 251 250 252 254 255 256 255 254 253 252 252 252 254 254 255 258 260 263 266 271 273 273 274 276 280 284 288 292 297 300 303 306 310 313 316
250 249 248 249 252 254 258 258 259 261 261 263 260 251 250 252 253 255 257 257 255 254 252 251 253 253 253 253 255 257 259 265 269 270 271 273 276 280 283 285 289 292 296 300 303 305 309 312 316
248 250 250 251 249 253 256 256 258 259 259 264 264 263 257 253 254 256 257 257 257 254 254 252 252 251 250 251 255 259 262 263 265 267 270 273 277 279 282 285 289 293 297 300 303 305 308 311 316
247 248 248 246 248 251 256 255 260 261 259 260 262 265 264 253 246 246 249 252 251 249 249 248 249 250 251 253 254 256 258 261 263 267 269 272 275 279 283 287 290 294 298 301 302 305 308 312 317
Height
5829 5829 5829 5831 5835 5834 5834 5836 5836 5837 5838 5837 5839 5840 5839 5839 5839 5840 5837 5838 5838 5838 5837 5837 5836 5836 5836 5836 5836 5835 5834 5834 5834 5834 5834 5833 5833 5831 5830 5829 5827 5825 5824 5823 5821 5820 5818 5817 5814
5826 5827 5828 5829 5831 5832 5832 5832 5834 5834 5835 5835 5836 5837 5837 5838 5838 5836 5835 5835 5836 5836 5835 5836 5835 5834 5834 5834 5834 5833 5833 5832 5832 5832 5831 5831 5830 5829 5827 5826 5824 5823 5821 5819 5818 5816 5815 5814 5812
5823 5824 5825 5826 5828 5830 5830 5830 5831 5832 5833 5833 5833 5833 5834 5835 5834 5834 5832 5833 5833 5833 5833 5833 5832 5832 5832 5832 5832 5831 5831 5830 5830 5829 5829 5828 5827 5826 5824 5824 5822 5820 5818 5817 5815 5813 5812 5810 5807
5820 5822 5822 5823 5825 5827 5827 5828 5828 5829 5829 5829 5829 5829 5831 5831 5832 5831 5830 5830 5830 5829 5829 5829 5829 5829 5830 5829 5829 5829 5829 5828 5828 5828 5826 5825 5825 5823 5822 5821 5820 5818 5816 5814 5812 5810 5808 5805 5802
5816 5817 5817 5819 5821 5823 5824 5824 5825 5826 5826 5826 5827 5828 5827 5827 5828 5827 5826 5826 5826 5826 5826 5826 5827 5827 5826 5827 5827 5826 5826 5827 5826 5826 5825 5824 5823 5822 5820 5818 5817 5815 5814 5811 5809 5805 5803 5801 5798
5811 5812 5814 5817 5817 5817 5820 5819 5821 5823 5823 5823 5824 5824 5823 5823 5823 5822 5822 5823 5823 5823 5823 5823 5823 5824 5824 5823 5823 5824 5823 5823 5823 5823 5822 5822 5820 5820 5818 5816 5813 5812 5810 5807 5804 5801 5798 5795 5793
5806 5806 5812 5812 5814 5813 5817 5814 5816 5818 5819 5820 5820 5819 5820 5818 5818 5818 5818 5818 5818 5819 5819 5820 5820 5820 5821 5821 5821 5820 5820 5820 5820 5819 5819 5818 5817 5817 5815 5813 5811 5808 5806 5803 5800 5796 5794 5790 5788
5800 5799 5806 5808 5810 5810 5809 5810 5811 5812 5814 5815 5815 5816 5814 5812 5813 5813 5813 5813 5814 5814 5814 5815 5815 5816 5817 5817 5818 5817 5817 5816 5816 5816 5816 5815 5815 5814 5812 5810 5808 5805 5802 5799 5796 5793 5789 5787 5783
5792 5790 5801 5804 5803 5805 5801 5803 5806 5806 5807 5808 5810 5809 5809 5807 5808 5808 5808 5808 5809 5809 5809 5810 5811 5812 5813 5814 5814 5814 5813 5813 5813 5813 5812 5812 5811 5810 5809 5807 5804 5802 5799 5795 5792 5788 5785 5782 5779
5783 5784 5795 5797 5795 5795 5795 5795 5797 5799 5801 5804 5804 5802 5802 5801 5803 5803 5804 5804 5804 5805 5805 5806 5807 5808 5808 5809 5809 5810 5810 5809 5809 5809 5808 5808 5807 5807 5805 5803 5800 5798 5795 5792 5788 5785 5781 5778 5774
5774 5778 5784 5786 5788 5787 5789 5789 5789 5791 5794 5798 5796 5794 5796 5796 5797 5798 5798 5798 5799 5800 5801 5802 5802 5803 5804 5804 5805 5806 5806 5805 5805 5804 5803 5803 5802 5802 5801 5798 5796 5794 5791 5787 5784 5780 5776 5773 5769
5765 5770 5772 5776 5777 5778 5780 5781 5782 5782 5788 5787 5787 5787 5790 5790 5790 5790 5790 5792 5793 5794 5794 5796 5797 5798 5799 5800 5801 5801 5801 5801 5800 5800 5799 5798 5797 5796 5796 5794 5791 5788 5785 5782 5778 5775 5771 5767 5762
5757 5761 5761 5764 5767 5768 5770 5773 5772 5776 5778 5777 5777 5779 5782 5782 5782 5783 5784 5785 5787 5788 5789 5789 5791 5792 5793 5794 5795 5795 5795 5795 5795 5794 5793 5792 5792 5790 5790 5787 5785 5782 5779 5775 5773 5769 5765 5760 5755
5749 5751 5752 5754 5758 5759 5760 5763 5761 5774 5768 5766 5767 5771 5773 5774 5775 5774 5778 5777 5780 5780 5782 5782 5784 5785 5787 5788 5789 5790 5789 5789 5788 5787 5787 5786 5786 5785 5783 5781 5778 5776 5774 5771 5767 5763 5759 5754 5749
5740 5742 5741 5745 5745 5747 5750 5752 5757 5758 5757 5756 5762 5763 5764 5767 5766 5769 5769 5770 5771 5773 5773 5776 5776 5778 5780 5781 5781 5782 5782 5782 5782 5781 5780 5780 5779 5778 5776 5774 5772 5770 5767 5764 5761 5756 5752 5748 5743
5731 5732 5733 5735 5734 5735 5738 5745 5746 5747 5749 5750 5749 5753 5755 5758 5759 5760 5762 5764 5764 5765 5767 5767 5769 5772 5772 5774 5775 5776 5777 5776 5775 5774 5773 5772 5770 5770 5769 5767 5765 5762 5760 5757 5753 5749 5745 5740 5734
5723 5725 5725 5724 5724 5725 5727 5732 5734 5736 5739 5740 5741 5744 5747 5749 5751 5754 5755 5756 5757 5757 5758 5760 5761 5763 5764 5765 5767 5768 5768 5769 5767 5767 5766 5765 5763 5762 5761 5759 5757 5754 5751 5748 5744 5741 5737 5732 5726
5715 5713 5713 5714 5716 5715 5716 5721 5724 5725 5726 5730 5731 5734 5737 5741 5743 5742 5744 5746 5747 5748 5749 5751 5754 5754 5755 5757 5759 5760 5760 5761 5760 5759 5758 5757 5756 5755 5753 5751 5749 5746 5743 5740 5736 5731 5727 5723 5718
5703 5704 5705 5706 5705 5704 5707 5707 5712 5712 5713 5720 5723 5725 5727 5731 5731 5732 5734 5736 5738 5740 5741 5742 5745 5747 5747 5750 5750 5750 5751 5753 5752 5751 5750 5749 5748 5747 5745 5743 5741 5738 5735 5731 5727 5721 5717 5713 5709
5695 5696 5698 5700 5697 5695 5697 5699 5701 5702 5703 5707 5712 5714 5719 5721 5722 5724 5726 5726 5729 5732 5733 5734 5736 5738 5739 5741 5741 5743 5743 5744 5743 5742 5742 5741 5739 5738 5737 5734 5732 5729 5726 5722 5718 5713 5708 5703 5698
5686 5687 5688 5689 5689 5688 5687 5691 5695 5696 5696 5698 5701 5705 5708 5712 5714 5715 5716 5718 5719 5723 5725 5726 5728 5729 5731 5731 5732 5735 5736 5735 5734 5733 5733 5732 5731 5729 5728 5725 5722 5720 5717 5713 5709 5704 5698 5692 5686
5676 5678 5678 5678 5678 5680 5681 5675 5687 5689 5690 5691 5695 5697 5700 5702 5704 5706 5707 5710 5713 5714 5715 5716 5718 5719 5721 5722 5725 5726 5726 5726 5724 5724 5723 5722 5721 5720 5718 5716 5713 5710 5707 5703 5699 5694 5689 5682 5675
5666 5667 5667 5667 5669 5670 5673 5669 5674 5683 5684 5687 5688 5688 5691 5694 5695 5698 5700 5702 5704 5704 5707 5707 5708 5709 5712 5714 5715 5716 5716 5716 5714 5714 5714 5713 5712 5711 5709 5706 5704 5701 5698 5693 5688 5684 5678 5671 5664
5656 5656 5657 5657 5658 5659 5662 5665 5663 5670 5678 5679 5679 5681 5683 5685 5686 5689 5690 5691 5694 5696 5697 5698 5700 5701 5703 5705 5705 5706 5705 5705 5705 5704 5704 5703 5702 5700 5699 5697 5695 5692 5688 5683 5678 5673 5667 5660 5653
5645 5647 5647 5647 5646 5649 5652 5655 5657 5656 5666 5669 5672 5673 5675 5677 5678 5680 5681 5683 5684 5686 5688 5689 5690 5692 5693 5694 5695 5695 5695 5695 5695 5694 5693 5693 5692 5690 5689 5687 5685 5682 5678 5673 5669 5663 5657 5649 5642
5633 5634 5635 5633 5636 5641 5641 5643 5650 5649 5651 5658 5661 5664 5665 5667 5668 5669 5671 5673 5674 5676 5677 5678 5680 5681 5682 5684 5684 5684 5684 5685 5684 5684 5684 5683 5682 5680 5679 5678 5676 5673 5668 5664 5659 5653 5646 5639 5631
5619 5621 5626 5625 5626 5626 5628 5634 5640 5641 5642 5646 5650 5653 5654 5656 5658 5659 5660 5662 5663 5665 5666 5668 5668 5670 5672 5672 5673 5674 5674 5674 5674 5675 5674 5673 5672 5670 5669 5668 5666 5663 5658 5654 5649 5643 5636 5629 5622
5605 5611 5611 5612 5613 5614 5617 5622 5627 5632 5634 5635 5637 5640 5644 5646 5648 5648 5650 5651 5652 5653 5655 5656 5657 5659 5660 5661 5662 5663 5664 5664 5664 5665 5664 5663 5662 5661 5660 5658 5656 5652 5649 5644 5639 5633 5626 5619 5612
5594 5596 5599 5601 5602 5602 5606 5612 5618 5620 5623 5625 5626 5628 5632 5635 5636 5638 5638 5640 5641 5643 5644 5645 5647 5648 5649 5650 5651 5653 5653 5654 5654 5654 5653 5653 5653 5652 5650 5648 5645 5642 5639 5634 5629 5623 5617 5610 5603
5577 5582 5583 5584 5590 5593 5598 5604 5606 5609 5611 5612 5616 5618 5619 5619 5622 5624 5626 5629 5630 5632 5633 5635 5636 5636 5638 5640 5641 5643 5643 5643 5643 5644 5643 5643 5642 5641 5639 5637 5635 5632 5628 5624 5619 5613 5608 5601 5594